Regional Weather Roundup
Issued by NWS

Home | Current Version | Previous Version | Text Only | Print | Product List | Glossary On
Versions: 1 2 3 4 5 6 7 8 9 10 11 12 13 14 15 16 17 18 19 20 21 22 23 24 25 26 27 28 29 30 31 32 33 34 35 36 37 38 39 40 41 42 43 44 45 46 47 48 49 50
000
ASUS44 KBMX 070110
RWRAL

ALABAMA REGIONAL WEATHER ROUNDUP
NATIONAL WEATHER SERVICE BIRMINGHAM AL
700 PM CST FRI MAR 06 2015

NOTE: "FAIR" INDICATES FEW OR NO CLOUDS BELOW 12,000 FEET
WITH NO SIGNIFICANT WEATHER AND/OR OBSTRUCTIONS TO VISIBILITY.

THE REMARK "TC" DENOTES TEMPERATURE IN DEGREES CELSIUS.

ALZ001>011-014-016>018-020-070200-
NORTH ALABAMA

CITY           SKY/WX    TMP DP  RH WIND       PRES   REMARKS
MUSCLE SHOALS  CLEAR     34  25  69 SE3       30.48S
HUNTSVILLE     CLEAR     36  20  52 N5        30.48R WCI  32
DECATUR        CLEAR     31  25  78 CALM      30.49R
HALEYVILLE       N/A     28  23  81 CALM      30.49R
GADSDEN        CLEAR     36  18  48 NW6       30.45R WCI  31
$$

ALZ012-013-022-023-030>036-040>044-070200-
WEST CENTRAL ALABAMA

CITY           SKY/WX    TMP DP  RH WIND       PRES   REMARKS
TUSCALOOSA     CLEAR     40  19  43 N6        30.49R
$$

ALZ015-024>027-033>036-040>044-070200-
CENTRAL ALABAMA

CITY           SKY/WX    TMP DP  RH WIND       PRES   REMARKS
BIRMINGHAM     PTCLDY    34  21  59 N6        30.48R WCI  29
MONTGOMERY     MOCLDY    46  28  49 N8        30.44R
SHELBY CO ARPT CLEAR     41  19  41 NW5       30.46R
MAXWELL AFB    PTCLDY    45  30  55 N8        30.43R
GREENVILLE     NOT AVBL
$$

ALZ019-021-028-029-037-038-045>048-070200-
EAST CENTRAL ALABAMA

CITY           SKY/WX    TMP DP  RH WIND       PRES   REMARKS
ANNISTON       CLEAR     38  29  70 CALM      30.45R
ALEXANDER CITY PTCLDY    44  28  53 NW7       30.43R
AUBURN         PTCLDY    45  28  53 N5        30.42S
$$

ALZ051>064-070200-
SOUTHWEST ALABAMA

CITY           SKY/WX    TMP DP  RH WIND       PRES   REMARKS
MOBILE         MOCLDY    46  17  31 N8        30.43R
BROOKLEY FIELD MOCLDY    48  20  32 N10       30.44R
EVERGREEN      MOCLDY    44  32  62 CALM      30.42R
$$

ALZ049-050-065>069-070200-
SOUTHEAST ALABAMA

CITY           SKY/WX    TMP DP  RH WIND       PRES   REMARKS
DOTHAN         MOCLDY    45  38  76 CALM      30.42R
OZARK          MOCLDY    45  35  70 NE5       30.39R
TROY           MOCLDY    44  35  70 NW6       30.41R
EUFAULA        FAIR      40  37  89 CALM      30.40R
$$


USA.gov is the U.S. government's official web portal to all federal, state and local government web resources and services.